#timestamp,LO_Frequency,Hit,StdDev 
1604692815.8,286047002.6,N
1604692835.7,286047000.4,N
1604692855.5,286047000.7,N
1604692875.3,286047000.0,N
1604692895.2,286047000.4,N
1604692915.0,286046998.6,N
1604692915.9,286046998.6,N
1604692935.7,286047000.8,N
1604692955.6,286046998.3,N
1604692975.4,286046996.9,N
1604692995.3,286046998.3,N
1604693015.1,286047001.0,N
1604693035.8,286046998.4,N
1604693055.7,286047000.4,N
1604693075.5,286047000.1,N
1604693095.4,286047000.1,N
1604693115.2,286047002.7,N
1604693135.0,286047000.2,N
1604693135.9,286047000.2,N
1604693155.8,286047002.5,N
1604693175.6,286047001.9,N
1604693195.4,286047002.5,N
1604693215.3,286047002.1,N
1604693235.1,286047002.8,N
1604693255.9,286046999.9,N
1604693275.7,286047002.6,N
1604693295.5,286046999.9,N
1604693315.4,286046999.9,N
1604693335.2,286047002.3,N
1604693355.0,286047001.3,N
1604693356.0,286047001.3,N
1604693375.8,286047001.8,N
1604693395.6,286047001.7,N
1604693415.5,286047001.5,N
1604693435.3,286047001.9,N
1604693455.1,286047001.4,N
1604693475.9,286047004.3,N
1604693495.7,286047003.9,N
1604693515.6,286047004.0,N
1604693535.4,286047002.5,N
1604693555.2,286047002.0,N
1604693575.1,286047003.8,N
1604693576.0,286047003.8,N
1604693595.8,286047004.4,Y
1604693615.7,286046998.5,P
1604693635.5,286046998.8,N
1604693655.3,286047001.1,N
1604693675.2,286047000.9,N
1604693695.9,286047000.3,N
1604693715.7,286046999.8,N
1604693735.6,286047000.4,N
1604693755.4,286046999.7,N
1604693775.3,286046999.9,N
1604693795.1,286047000.1,N
1604693796.0,286047000.1,N
1604693815.8,286047000.6,N
1604693835.7,286047000.2,N
1604693855.5,286047000.8,N
1604693875.3,286047000.7,N
1604693895.2,286047000.7,N
1604693915.0,286047000.5,N
1604693915.9,286047000.5,N
1604693935.8,286047002.4,Y
1604693955.6,286047000.0,P
1604693975.4,286047001.9,P
1604693995.3,286047002.1,N
1604694015.1,286047002.8,N
1604694035.9,286047002.0,N
1604694055.7,286047000.1,N
1604694075.5,286047000.5,N
1604694095.4,286047000.0,N
1604694115.2,286047002.3,N
1604694135.0,286047002.8,N
1604694136.0,286047002.8,N
1604694155.8,286047000.5,N
1604694175.6,286046998.3,N
1604694195.5,286046998.9,N
1604694215.3,286046998.3,N
1604694235.1,286046996.6,N
1604694255.9,286046999.0,N
1604694275.7,286046999.3,N
1604694295.6,286046999.6,N
1604694315.4,286046999.1,N
1604694335.2,286046999.1,N
1604694355.1,286046998.8,N
1604694356.0,286046998.8,N
1604694375.8,286046998.5,N
1604694395.6,286046998.7,N
1604694415.5,286046998.1,N
1604694435.3,286046999.1,N
1604694455.2,286046999.4,N
1604694475.9,286046996.9,N
1604694495.7,286046998.7,N
1604694515.6,286047000.8,N
1604694535.4,286046998.7,N
1604694555.3,286047000.9,N
1604694575.1,286047001.2,N
1604694576.0,286047001.2,N
1604694595.8,286047001.2,N
1604694615.7,286046999.4,N
1604694635.5,286046996.5,N
1604694655.3,286046999.1,N
1604694675.2,286046998.1,N
1604694695.0,286047000.2,N
1604694695.9,286047000.2,N
1604694715.8,286047002.7,N
1604694735.6,286047000.5,N
1604694755.4,286047000.4,N
1604694775.3,286047002.5,N
1604694795.1,286047002.8,N
1604694815.9,286046999.8,N
1604694835.7,286047000.9,N
1604694855.5,286046998.5,N
1604694875.4,286046998.5,N
1604694895.2,286047001.2,N
1604694915.0,286046998.7,N
1604694915.9,286046998.7,N
1604694935.8,286046998.4,N
1604694955.6,286046998.8,N
1604694975.5,286047000.3,N
1604694995.3,286046999.8,N
1604695015.1,286047000.9,N
1604695035.9,286046998.5,N
1604695055.7,286046998.3,N
1604695075.5,286047001.0,N
1604695095.4,286046998.5,N
1604695115.2,286047001.1,N
1604695135.1,286046996.6,N
1604695136.0,286046996.6,N
1604695155.8,286046996.6,N
1604695175.6,286046997.1,N
1604695195.5,286046999.0,N
1604695215.3,286046998.5,N
1604695235.2,286047000.3,N
1604695255.9,286046998.4,N
1604695275.7,286046998.4,N
1604695295.6,286046998.9,N
1604695315.4,286046997.0,N
1604695335.2,286046997.5,N
1604695355.1,286046996.5,N
1604695356.0,286046996.5,N
1604695375.8,286046999.6,N
1604695395.7,286046997.2,N
1604695415.5,286046997.1,N
1604695435.3,286046997.3,N
1604695455.2,286046997.0,N
1604695475.0,286046996.8,N
1604695475.9,286046996.8,N
1604695495.7,286046997.7,N
1604695515.6,286046997.2,N
1604695535.4,286046999.2,N
1604695555.3,286046997.1,N
1604695575.1,286046999.5,N
1604695576.0,286046999.5,N
1604695595.8,286046999.2,N
1604695615.7,286046999.4,N
1604695635.5,286046999.5,N
1604695655.3,286046999.3,N
1604695675.2,286046996.8,N
1604695695.0,286046997.2,N
1604695695.9,286046997.2,N
1604695715.8,286046997.4,N
1604695735.6,286046995.0,Y
1604695755.4,286046996.5,P
1604695775.3,286046998.9,N
1604695795.1,286046998.9,N
1604695815.9,286046997.2,N
1604695835.7,286046997.4,N
1604695855.5,286046997.3,Y
1604695875.4,286047000.6,P
1604695895.2,286047000.3,N
1604695915.0,286047002.7,N
1604695915.9,286047002.7,N
1604695935.8,286047002.3,N
1604695955.6,286046999.7,N
1604695975.5,286046999.9,N
1604695995.3,286047000.2,N
1604696015.1,286047000.1,N
1604696035.9,286047002.6,N
1604696055.7,286047002.3,N
1604696075.6,286047002.0,N
1604696095.4,286047004.4,N
1604696115.2,286047004.4,N
1604696135.1,286047003.8,N
1604696136.0,286047003.8,N
1604696155.8,286047003.4,N
1604696175.7,286047005.8,Y
1604696195.5,286047004.3,P
1604696215.3,286047003.4,N
1604696235.2,286047003.8,P
1604696255.0,286047003.5,Y
1604696255.9,286047003.5,P
1604696275.8,286046998.3,P
1604696295.6,286046998.4,N
1604696315.4,286046998.5,N
1604696335.3,286046998.1,N
1604696355.1,286047001.2,N
1604696375.8,286046998.6,N
1604696395.7,286046998.6,N
